Regional Weather Roundup
Issued by NWS

Home | Current Version | Previous Version | Text Only | Print | Product List | Glossary On
Versions: 1 2 3 4 5 6 7 8 9 10 11 12 13 14 15 16 17 18 19 20 21 22 23 24 25 26 27 28 29 30 31 32 33 34 35 36 37 38 39 40 41 42 43 44 45 46 47 48 49 50
000
ASUS43 KLOT 201208
RWRIL

ILLINOIS REGIONAL WEATHER ROUNDUP
NATIONAL WEATHER SERVICE CHICAGO/ROMEOVILLE IL
600 AM CST TUE FEB 20 2018

NOTE: "FAIR" INDICATES FEW OR NO CLOUDS BELOW 12,000 FEET WITH NO
SIGNIFICANT WEATHER AND/OR OBSTRUCTIONS TO VISIBILITY.

* THESE STATIONS ARE NOT UNDER NWS QUALITY CONTROL. THEY ALSO MAY NOT
  REPORT WEATHER SUCH AS PRECIPITATION OR FOG.

ILZ001-002-007-009-015-016-024-201300-
NORTHWEST ILLINOIS

CITY           SKY/WX    TMP DP  RH WIND       PRES   REMARKS
MOLINE         CLOUDY    39  37  92 NW6       29.81F WCI  35
6HR MIN TEMP:  39; 6HR MAX TEMP:  41; 6HR PCP:  0.67;

STERLING*        N/A    N/A N/A N/A MISG        N/A
SAVANNA*       RAIN      36  36  99 NE5       29.81F WCI  32
$$

ILZ003-004-008-010-011-017-018-201300-
NORTH CENTRAL ILLINOIS

CITY           SKY/WX    TMP DP  RH WIND       PRES   REMARKS
ROCKFORD       LGT RAIN  42  42 100 S6        29.81R VSB 1
6HR MIN TEMP:  41; 6HR MAX TEMP:  50; 6HR PCP:  0.52;

FREEPORT*      LGT RAIN  37  37 100 NW13      29.86R WCI  29
ROCHELLE*      FOG       43  43 100 S7        29.81S VSB 1/2
DE KALB*       RAIN      49  49 100 SW9       29.82S VSB 3/4
PERU*          FOG       52  52  99 S9        29.83S VSB 1
$$

ILZ005-006-012>014-019>023-201300-
NORTHEAST ILLINOIS

CITY           SKY/WX    TMP DP  RH WIND       PRES   REMARKS
CHICAGO-OHARE  LGT RAIN  59  56  89 SW12      29.83R FOG
6HR MIN TEMP:  58; 6HR MAX TEMP:  61; 6HR PCP:  0.93;

CHICAGO-MIDWAY RAIN      58  58 100 W6        29.84F FOG
6HR MIN TEMP:  58; 6HR MAX TEMP:  61; 6HR PCP:  1.26;

AURORA         LGT RAIN  56  56 100 SW12      29.84R FOG
6HR MIN TEMP:  53; 6HR MAX TEMP:  58; 6HR PCP:  0.90;

LANSING*       RAIN      59  59 100 SW21G28   29.85S
JOLIET*        DRIZZLE   60  60  99 S12       29.84R
WAUKEGAN       LGT RAIN  57  57 100 SW16      29.80R FOG
6HR MIN TEMP:  56; 6HR MAX TEMP:  58; 6HR PCP:  0.50;

DUPAGE AIRPORT CLOUDY    57  57 100 SW12      29.83R FOG
6HR MIN TEMP:  56; 6HR MAX TEMP:  59;

KANKAKEE*      RAIN      59  59  98 SW16G24   29.88S
WHEELING       RAIN      59  58  96 S10       29.83R FOG
6HR MIN TEMP:  59; 6HR MAX TEMP:  61; 6HR PCP:  0.68;

MORRIS*        DRIZZLE   58  57  96 SW12      29.84R
ROMEOVILLE*    DRIZZLE   57  57 100 SW10      29.84R
NORTHERLY ISL    N/A     58  55  90 S5          N/A
$$

LMZ740>746-201300-
SOUTHERN LAKE MICHIGAN

STATION/POSITION SKY/WX   TEMP    WIND        PRES    VSBY  WAVE
                          AIR SEA DIR/SP/G                  HT/PER
                          (F)     (DEG/KT/KT) (MB)    (MI)  (FT/S)
HARRISON CRIB              58     220/ 11/ 11   N/A
BURNHAM HARBOR             58     240/  6/ 14   N/A
CALUMET HARBOR             58     170/  7/ 11 1010.1R
BURNS HARBOR               60     200/ 19/ 23 1011.5S
MICHIGAN CITY              60     180/ 15/ 20   N/A
$$

ILZ025>027-034>036-040-047-049-050-058-095>099-201300-
WEST-CENTRAL ILLINOIS

CITY           SKY/WX    TMP DP  RH WIND       PRES   REMARKS
QUINCY         CLOUDY    57  55  93 S6        29.79S
GALESBURG*     FOG       46  46 100 SE3       29.80S VSB 1
MACOMB*        CLOUDY    45  45 100 SE3       29.81F FOG
JACKSONVILLE*  LGT RAIN  61  58  91 S14       29.85R
PITTSFIELD*    CLOUDY    64  60  85 S17G26    29.83R
$$

ILZ028>032-037-038-041>044-048-051>054-059>061-201300-
CENTRAL ILLINOIS

CITY           SKY/WX    TMP DP  RH WIND       PRES   REMARKS
PONTIAC        CLOUDY    61  61  98 S20G26    29.85S
BLOOMINGTON    LGT RAIN  60  58  92 S21G29    29.86S
DECATUR        CLOUDY    65  57  75 SW23      29.89R
PEORIA         CLOUDY    59  58  96 S8        29.83R
6HR MIN TEMP:  59; 6HR MAX TEMP:  62; 6HR PCP:  0.34;

LACON*         LGT RAIN  59  59  99 S7        29.82S
LINCOLN*       HVY RAIN  62  61  97 S12G23    29.86R
SPRINGFIELD    LGT RAIN  63  60  90 S17G26    29.86R
6HR MIN TEMP:  63; 6HR MAX TEMP:  65; 6HR PCP:  0.48;

TAYLORVILLE    CLOUDY    64  57  79 S21G29    29.88S
6HR MIN TEMP:  62; 6HR MAX TEMP:  64; 6HR PCP:  0.01;

$$

ILZ033-039-045-046-055>057-062-063-201300-
EAST-CENTRAL ILLINOIS

CITY           SKY/WX    TMP DP  RH WIND       PRES   REMARKS
CHAMPAIGN      CLOUDY    61  59  93 S17       29.90R
DANVILLE*      CLOUDY    64  59  84 S26G36    29.89R
RANTOUL*       RAIN      64  61  90 S14G23    29.90S
MATTOON        FAIR      64  59  83 S15G26    29.92R
PARIS*         MOCLDY    64  60  86 S23G30    29.96R
$$

ILZ079-100>102-201300-
SOUTHWEST ILLINOIS

CITY           SKY/WX    TMP DP  RH WIND       PRES   REMARKS
ALTON          CLOUDY    66  58  77 S17G25    29.89R
BELLEVILLE     CLOUDY    68  58  70 SW22G30   29.90R
CAHOKIA*         N/A    N/A N/A N/A MISG      29.88S
SPARTA*        CLOUDY    66  62  86 S20G32    29.97R
$$

ILZ064>066-069>071-074>076-080>082-084>086-088>090-092>094-201300-
SOUTH-CENTRAL ILLINOIS

CITY           SKY/WX    TMP DP  RH WIND       PRES   REMARKS
CARBONDALE     MOCLDY    68  61  78 S26G44    29.98S
6HR MIN TEMP:  66; 6HR MAX TEMP:  69; 6HR PCP: TRACE;

CAIRO*         CLOUDY    66  61  84 S14G20    30.04S
EFFINGHAM*     LGT RAIN  67  61  82 S15G22    29.96S
MARION         CLOUDY    65  64  94 S20       30.03R
MT. VERNON     MOCLDY    66  61  84 S20G25    29.99R
CENTRALIA*     CLOUDY    68  62  80 S18G30    29.96R
SALEM*         MOCLDY    69  60  73 S23G30    29.96R
METROPOLIS*    CLOUDY    67  60  78 S10G16    30.07R
$$

ILZ067-068-072-073-078-083-087-091-201300-
SOUTHEAST ILLINOIS

CITY           SKY/WX    TMP DP  RH WIND       PRES   REMARKS
LAWRENCEVILLE  FAIR      66  59  78 S23       30.01R
FLORA*         FAIR      68  61  77 S21G26    29.98R
FAIRFIELD*     MOCLDY    66  61  83 S14       29.99S
HARRISBURG*    CLOUDY    68  62  80 S17G23    30.03S
ROBINSON*      FAIR      64  58  83 S18       30.00R
CARMI*         CLOUDY    65  60  82 S20       30.02F
$$

ABBREVIATIONS USED IN REMARKS
   TC - TEMPERATURE IN CELSIUS
  WCI - WIND CHILL INDEX
   HX - HEAT INDEX
  VSB - VISIBILITY
$$




USA.gov is the U.S. government's official web portal to all federal, state and local government web resources and services.